Location: Clinton NY
(43.0598°N, 75.3602°W)
Time: 18:33:34
(UTC-04:00)

Amateur Radio Satellites - All Passes

Search period start: 26 June 2017 18:03
Search period end: 27 June 2017 18:03
Location: Clinton NY, 43.0598°N, 75.3602°W

Satellite Date Start Highest point End Downlink Frequencies (MHz)
Time Altitude Azimuth
HO-68 26 Jun 18:09:23 18:15:15 28° 59° (ENE) 18:21:08 435.675
NUDT-PHONESAT 26 Jun 18:11:08 18:14:47 49° 74° (ENE) 18:18:25 437.300
CUTE-I 26 Jun 18:20:07 18:25:26 75° 74° (ENE) 18:30:47 437.470
CUTE 1.7 + AOD 2 26 Jun 18:24:51 18:27:29 16° 64° (ENE) 18:30:07 437.475
KKS-1 26 Jun 18:25:49 18:30:10 51° 288° (WNW) 18:34:31 437.445
XW-2F 26 Jun 18:30:04 18:33:53 75° 257° (WSW) 18:37:43 145.980 - 146.000
XW-2D 26 Jun 18:34:55 18:38:42 60° 259° (W) 18:42:31 145.860 - 145.880
XW-2B 26 Jun 18:44:03 18:47:46 48° 261° (W) 18:51:30 145.730 - 145.750
LilacSat-2 26 Jun 18:44:44 18:48:26 44° 261° (W) 18:52:09 437.200
XW-2A 26 Jun 18:44:53 18:46:57 15° 66° (ENE) 18:49:02 145.665 - 145.685
CUBEBUG 2 26 Jun 18:47:29 18:50:26 17° 63° (ENE) 18:53:27 437.445
STARS 26 Jun 18:52:17 18:56:40 61° 287° (WNW) 19:01:02 437.465
XW-2C 26 Jun 18:59:58 19:03:24 30° 264° (W) 19:06:50 145.795 - 145.815
KAITUO 1B 26 Jun 19:11:21 19:14:39 28° 264° (W) 19:17:59 145.475/437.950
ZACube-1 26 Jun 19:13:13 19:14:13 11° 59° (ENE) 19:15:14 437.345
UWE-3 26 Jun 19:18:11 19:21:36 21° 65° (ENE) 19:25:04 435.000/436.395/437.385
CUBESAT XI-V 26 Jun 19:23:50 19:25:02 11° 301° (WNW) 19:26:14 437.345
SEEDS 26 Jun 19:38:57 19:43:06 63° 74° (ENE) 19:47:15 437.485
PCSat 26 Jun 19:41:06 19:44:45 18° 40° (NE) 19:48:22 145.827
NUDT-PHONESAT 26 Jun 19:47:31 19:48:56 12° 269° (W) 19:50:23 437.300
HO-68 26 Jun 19:55:21 20:02:28 64° 257° (WSW) 20:09:39 435.675
CUTE 1.7 + AOD 2 26 Jun 19:58:49 20:02:56 48° 261° (W) 20:07:03 437.475
CUTE-I 26 Jun 20:03:14 20:06:03 14° 271° (W) 20:08:52 437.470
AO-85 26 Jun 20:04:51 20:08:15 26° 115° (ESE) 20:11:33 145.980
AO-73 26 Jun 20:09:55 20:14:01 35° 70° (ENE) 20:18:11 145.935
XW-2A 26 Jun 20:16:18 20:19:25 32° 263° (W) 20:22:34 145.665 - 145.685
CUBEBUG 2 26 Jun 20:22:01 20:26:33 57° 260° (W) 20:31:13 437.445
STRAND 1 26 Jun 20:23:18 20:28:26 63° 102° (ESE) 20:33:32 437.568
AAUSAT CUBESAT 2 26 Jun 20:26:18 20:30:26 81° 259° (W) 20:34:34 437.432
RS-15 26 Jun 20:30:36 20:41:54 48° 109° (ESE) 20:53:24 29.354- 29.394
Oscar 11 26 Jun 20:35:34 20:39:45 48° 72° (ENE) 20:43:57 .
NO-84 26 Jun 20:39:50 20:41:58 14° 123° (ESE) 20:44:12 435.350 FM
YUBILEINY 26 Jun 20:40:24 20:45:58 19° 76° (ENE) 20:51:31 435.215
ZACube-1 26 Jun 20:45:09 20:49:44 88° 70° (ENE) 20:54:21 437.345
EO-88 26 Jun 20:50:40 20:51:40 11° 63° (ENE) 20:52:39 145.990 - 145.960
UWE-3 26 Jun 20:53:20 20:57:43 44° 262° (W) 21:02:12 435.000/436.395/437.385
BEESAT 3 26 Jun 20:58:10 21:02:03 55° 120° (ESE) 21:06:00 437.485
O/OREOS (USA 219) 26 Jun 21:02:28 21:06:13 26° 103° (ESE) 21:09:57 437.305
SEEDS 26 Jun 21:17:49 21:19:11 11° 271° (W) 21:20:33 437.485
SO-50 26 Jun 21:19:55 21:22:09 13° 34° (NE) 21:24:23 436.795
PCSat 26 Jun 21:23:27 21:28:56 88° 63° (ENE) 21:34:21 145.827
DELFI C3 26 Jun 21:41:31 21:45:24 67° 74° (ENE) 21:49:18 145.870
M-CUBED/EXP-1 PRIME 26 Jun 21:43:02 21:44:24 12° 98° (E) 21:45:49 437.505
AO-85 26 Jun 21:44:56 21:48:31 30° 312° (NW) 21:52:03 145.980
UNISAT 6 26 Jun 21:46:12 21:47:56 12° 88° (E) 21:49:39 437.425
AO-73 26 Jun 21:46:35 21:50:18 24° 266° (W) 21:54:03 145.935
BEESAT 2 26 Jun 21:59:58 22:03:56 89° 125° (SE) 22:08:01 435.950
STRAND 1 26 Jun 22:03:40 22:07:06 18° 299° (WNW) 22:10:31 437.568
PRISM 26 Jun 22:07:28 22:10:15 17° 93° (E) 22:13:02 437.425
Oscar 11 26 Jun 22:13:28 22:16:09 16° 269° (W) 22:18:49 .
NO-84 26 Jun 22:15:02 22:18:57 80° 320° (NW) 22:23:11 435.350 FM
FO-29 26 Jun 22:18:06 22:25:39 48° 97° (E) 22:33:02 435.910
EO-88 26 Jun 22:21:13 22:24:51 57° 260° (W) 22:28:28 145.990 - 145.960
YUBILEINY 26 Jun 22:32:37 22:41:27 90° 86° (E) 22:50:21 435.215
BEESAT 3 26 Jun 22:37:07 22:39:58 18° 318° (NW) 22:42:50 437.485
TIGRISAT 26 Jun 22:38:08 22:42:29 38° 97° (E) 22:46:44 435.000
LO-87 26 Jun 22:40:00 22:43:04 28° 70° (ENE) 22:46:10 145.935 - 145.965
O/OREOS (USA 219) 26 Jun 22:41:21 22:45:28 33° 301° (WNW) 22:49:36 437.305
RS-15 26 Jun 22:42:08 22:54:11 60° 313° (NW) 23:06:26 29.354- 29.394
SO-50 26 Jun 22:58:54 23:03:26 71° 54° (NE) 23:07:58 436.795
ESTCUBE 1 26 Jun 23:06:36 23:10:47 39° 70° (ENE) 23:14:58 437.505/2401.250
PCSat 26 Jun 23:09:10 23:11:30 13° 258° (WSW) 23:13:50 145.827
SPROUT 26 Jun 23:15:16 23:17:14 13° 62° (ENE) 23:19:13 437.525
M-CUBED/EXP-1 PRIME 26 Jun 23:15:23 23:19:03 57° 291° (WNW) 23:23:01 437.505
UNISAT 6 26 Jun 23:20:30 23:25:10 72° 285° (WNW) 23:29:42 437.425
AIST 2D 26 Jun 23:33:18 23:35:42 17° 93° (E) 23:38:05 435.315
BEESAT 2 26 Jun 23:40:13 23:42:18 14° 322° (NW) 23:44:24 435.950
PRISM 26 Jun 23:41:50 23:45:41 39° 289° (WNW) 23:49:31 437.425
POLYITAN 1 26 Jun 23:53:11 23:55:49 16° 91° (E) 23:58:27 437.675
NO-84 26 Jun 23:53:48 23:57:07 23° 342° (NNW) 00:00:35 435.350 FM
FO-29 27 Jun 00:03:18 00:10:28 41° 295° (WNW) 00:17:36 435.910
QB50P2 27 Jun 00:03:30 00:06:54 22° 94° (E) 00:10:15 145.880/145.840
LO-87 27 Jun 00:14:00 00:16:32 18° 267° (W) 00:19:05 145.935 - 145.965
TIGRISAT 27 Jun 00:15:16 00:18:56 23° 295° (WNW) 00:22:33 435.000
EO-79 27 Jun 00:27:04 00:31:03 36° 98° (E) 00:34:59 145.935-145.965
YUBILEINY 27 Jun 00:33:19 00:39:33 21° 299° (WNW) 00:45:50 435.215
VELOX 1 27 Jun 00:38:08 00:42:30 89° 92° (E) 00:46:56 145.980
DUCHIFAT 1 27 Jun 00:39:17 00:43:19 40° 98° (E) 00:47:17 145.980
SO-50 27 Jun 00:41:04 00:43:19 14° 251° (WSW) 00:45:34 436.795
ESTCUBE 1 27 Jun 00:44:20 00:47:43 21° 267° (W) 00:51:06 437.505/2401.250
SPROUT 27 Jun 00:48:21 00:52:35 65° 258° (WSW) 00:56:52 437.525
NANOSAT C BR1 27 Jun 00:48:29 00:52:43 57° 101° (E) 00:56:53 145.865
DX 1 27 Jun 00:53:17 00:57:22 43° 71° (ENE) 01:01:29 434.975-435.025
RS-15 27 Jun 00:59:49 01:10:03 29° 344° (NNW) 01:20:14 29.354- 29.394
AIST 2D 27 Jun 01:05:55 01:08:56 27° 290° (WNW) 01:11:57 435.315
UKube-1 27 Jun 01:07:26 01:11:28 41° 71° (ENE) 01:15:32 .
50 SAT 27 Jun 01:21:02 01:24:19 54° 259° (W) 01:27:39 437.505
Oscar 19 27 Jun 01:23:06 01:26:07 16° 90° (E) 01:29:08 437.125/150
POLYITAN 1 27 Jun 01:27:44 01:31:52 47° 288° (WNW) 01:35:57 437.675
NO-84 27 Jun 01:33:09 01:35:57 17° 3° (N) 01:38:48 435.350 FM
QB50P2 27 Jun 01:38:53 01:42:44 33° 290° (WNW) 01:46:33 145.880/145.840
BUGSAT 1 27 Jun 01:43:16 01:47:31 62° 102° (ESE) 01:51:41 437.445
EO-79 27 Jun 02:03:20 02:06:34 21° 294° (WNW) 02:09:47 145.935-145.965
DUCHIFAT 1 27 Jun 02:15:39 02:18:41 19° 295° (WNW) 02:21:42 145.980
NANOSAT C BR1 27 Jun 02:25:38 02:27:56 14° 297° (WNW) 02:30:14 145.865
MOZHAYETS 4 27 Jun 02:26:57 02:30:14 19° 64° (ENE) 02:33:31
Gurwin Techsat 1B 27 Jun 02:27:04 02:32:03 39° 98° (E) 02:37:00 435.225
DX 1 27 Jun 02:30:50 02:33:45 18° 267° (W) 02:36:42 434.975-435.025
UKube-1 27 Jun 02:44:42 02:47:40 18° 267° (W) 02:50:39 .
ITUPSAT 1 27 Jun 02:59:07 03:03:51 62° 72° (ENE) 03:08:37 437.325
Oscar 19 27 Jun 03:00:49 03:05:54 66° 287° (WNW) 03:10:58 437.125/150
BEESAT 27 Jun 03:08:01 03:12:47 77° 76° (ENE) 03:17:36 436.000
NO-84 27 Jun 03:10:55 03:14:42 28° 23° (NNE) 03:18:30 435.350 FM
CUBESAT XI-V 27 Jun 03:14:03 03:15:32 11° 60° (ENE) 03:17:01 437.345
RS-15 27 Jun 03:17:24 03:27:49 30° 19° (NNE) 03:37:55 29.354- 29.394
AO-7 27 Jun 03:19:31 03:25:43 22° 92° (E) 03:31:51 .
BUGSAT 1 27 Jun 03:20:15 03:22:20 13° 298° (WNW) 03:24:25 437.445
ITAMSAT 1 27 Jun 03:42:06 03:46:25 25° 94° (E) 03:50:42 435.822/435.867
KKS-1 27 Jun 03:49:36 03:52:34 18° 63° (ENE) 03:55:33 437.445
MOZHAYETS 4 27 Jun 04:02:33 04:07:02 48° 261° (W) 04:11:32
Gurwin Techsat 1B 27 Jun 04:07:19 04:11:49 29° 295° (WNW) 04:16:20 435.225
STARS 27 Jun 04:15:30 04:17:52 14° 61° (ENE) 04:20:14 437.465
AO-85 27 Jun 04:33:59 04:37:42 32° 49° (NE) 04:41:34 145.980
ITUPSAT 1 27 Jun 04:39:18 04:42:05 15° 269° (W) 04:44:51 437.325
BEESAT 2 27 Jun 04:40:53 04:42:15 11° 35° (NE) 04:43:37 435.950
CUBESAT XI-V 27 Jun 04:47:34 04:52:12 86° 255° (WSW) 04:56:51 437.345
NO-84 27 Jun 04:48:18 04:52:41 74° 222° (SW) 04:56:58 435.350 FM
BEESAT 27 Jun 04:49:21 04:51:06 12° 271° (W) 04:52:52 436.000
AO-7 27 Jun 05:10:54 05:19:20 82° 290° (WNW) 05:27:41 .
BEESAT 3 27 Jun 05:14:02 05:17:54 43° 51° (NE) 05:21:42 437.485
ITAMSAT 1 27 Jun 05:21:06 05:26:01 42° 292° (WNW) 05:30:55 435.822/435.867
KKS-1 27 Jun 05:24:28 05:28:45 48° 260° (W) 05:33:04 437.445
RS-15 27 Jun 05:31:03 05:43:15 67° 50° (NE) 05:54:49 29.354- 29.394
STARS 27 Jun 05:49:21 05:53:41 62° 259° (W) 05:58:04 437.465
DOVE 4 27 Jun 05:56:58 06:01:18 29° 95° (E) 06:05:47 437.250
STRAND 1 27 Jun 06:04:04 06:06:39 14° 58° (ENE) 06:09:15 437.568
XW-2F 27 Jun 06:04:24 06:04:29 10° 89° (E) 06:04:32 145.980 - 146.000
XW-2D 27 Jun 06:08:03 06:09:47 13° 91° (E) 06:11:30 145.860 - 145.880
AO-85 27 Jun 06:14:26 06:18:00 28° 244° (WSW) 06:21:45 145.980
XW-2B 27 Jun 06:16:35 06:18:54 16° 92° (E) 06:21:13 145.730 - 145.750
BEESAT 2 27 Jun 06:16:42 06:20:47 70° 55° (NE) 06:24:48 435.950
LilacSat-2 27 Jun 06:17:42 06:20:17 17° 93° (E) 06:22:49 437.200
NO-84 27 Jun 06:28:19 06:29:33 11° 239° (WSW) 06:30:48 435.350 FM
XW-2C 27 Jun 06:31:32 06:34:38 24° 95° (E) 06:37:41 145.795 - 145.815
CUTE-I 27 Jun 06:36:37 06:41:12 28° 95° (E) 06:45:45 437.470
KAITUO 1B 27 Jun 06:41:27 06:44:29 23° 95° (E) 06:47:29 145.475/437.950
BEESAT 3 27 Jun 06:52:24 06:55:10 18° 248° (WSW) 06:57:53 437.485
AO-7 27 Jun 07:05:07 07:10:53 21° 311° (NW) 07:16:38 .
O/OREOS (USA 219) 27 Jun 07:10:38 07:15:04 58° 64° (ENE) 07:19:29 437.305
NUDT-PHONESAT 27 Jun 07:14:12 07:17:52 60° 101° (E) 07:21:29 437.300
HO-68 27 Jun 07:22:44 07:28:25 25° 93° (E) 07:34:02 435.675
DOVE 4 27 Jun 07:34:30 07:38:57 35° 290° (WNW) 07:43:36 437.250
XW-2F 27 Jun 07:35:17 07:38:58 56° 286° (WNW) 07:42:37 145.980 - 146.000
XW-2A 27 Jun 07:38:10 07:39:50 13° 92° (E) 07:41:29 145.665 - 145.685
STRAND 1 27 Jun 07:39:58 07:45:07 84° 256° (WSW) 07:50:18 437.568
XW-2D 27 Jun 07:40:36 07:44:12 44° 287° (WNW) 07:47:47 145.860 - 145.880
CUTE 1.7 + AOD 2 27 Jun 07:42:54 07:46:25 25° 95° (E) 07:49:54 437.475
RS-15 27 Jun 07:44:20 07:55:02 40° 254° (WSW) 08:05:19 29.354- 29.394
XW-2B 27 Jun 07:49:46 07:53:15 36° 288° (WNW) 07:56:41 145.730 - 145.750
LilacSat-2 27 Jun 07:51:13 07:54:39 33° 289° (WNW) 07:58:02 437.200
BEESAT 2 27 Jun 07:56:36 07:57:56 11° 252° (WSW) 07:59:17 435.950
Tancredo 1 27 Jun 07:56:42 07:59:39 55° 143° (SE) 08:02:38 437.200
XW-2C 27 Jun 08:05:40 08:08:44 24° 291° (WNW) 08:11:47 145.795 - 145.815
AAUSAT CUBESAT 2 27 Jun 08:08:42 08:10:58 14° 91° (E) 08:13:13 437.432
CUBEBUG 2 27 Jun 08:12:12 08:16:19 29° 94° (E) 08:20:20 437.445
KAITUO 1B 27 Jun 08:15:25 08:18:24 23° 291° (WNW) 08:21:22 145.475/437.950
CUTE-I 27 Jun 08:16:19 08:21:20 40° 292° (WNW) 08:26:20 437.470
M-CUBED/EXP-1 PRIME 27 Jun 08:30:00 08:31:50 14° 60° (ENE) 08:33:40 437.505
FO-29 27 Jun 08:32:38 08:37:23 22° 57° (ENE) 08:42:33 435.910
ZACube-1 27 Jun 08:33:53 08:36:41 16° 90° (E) 08:39:25 437.345
ISS 27 Jun 08:36:49 08:40:04 67° 144° (SE) 08:43:20 437.550
YUBILEINY 27 Jun 08:41:53 08:50:22 48° 74° (ENE) 08:58:45 435.215
UWE-3 27 Jun 08:42:02 08:46:15 35° 96° (E) 08:50:20 435.000/436.395/437.385
UNISAT 6 27 Jun 08:45:53 08:48:04 13° 60° (ENE) 08:50:17 437.425
NUDT-PHONESAT 27 Jun 08:50:31 08:51:14 10° 297° (WNW) 08:51:57 437.300
O/OREOS (USA 219) 27 Jun 08:51:39 08:53:57 14° 261° (W) 08:56:14 437.305
SEEDS 27 Jun 08:57:09 09:01:18 74° 285° (WNW) 09:05:27 437.485
PRISM 27 Jun 08:58:13 09:00:33 15° 63° (ENE) 09:02:52 437.425
HO-68 27 Jun 09:09:32 09:16:39 66° 291° (WNW) 09:23:42 435.675
XW-2A 27 Jun 09:09:35 09:12:43 34° 288° (WNW) 09:15:49 145.665 - 145.685
CUTE 1.7 + AOD 2 27 Jun 09:18:37 09:22:13 28° 291° (WNW) 09:25:48 437.475
AO-73 27 Jun 09:32:38 09:37:03 62° 100° (E) 09:41:19 145.935
Tancredo 1 27 Jun 09:32:47 09:35:23 26° 341° (NNW) 09:38:02 437.200
TIGRISAT 27 Jun 09:37:15 09:41:30 37° 70° (ENE) 09:45:49 435.000
AAUSAT CUBESAT 2 27 Jun 09:42:43 09:46:41 48° 287° (WNW) 09:50:38 437.432
CUBEBUG 2 27 Jun 09:48:47 09:52:52 30° 292° (WNW) 09:56:51 437.445
EO-88 27 Jun 09:51:06 09:52:08 11° 90° (E) 09:53:10 145.990 - 145.960
Oscar 11 27 Jun 09:57:32 10:01:52 89° 116° (ESE) 10:06:09 .
M-CUBED/EXP-1 PRIME 27 Jun 10:03:06 10:06:04 32° 257° (WSW) 10:09:02 437.505
ZACube-1 27 Jun 10:08:56 10:13:14 48° 288° (WNW) 10:17:25 437.345
ISS 27 Jun 10:13:56 10:16:46 26° 342° (NNW) 10:19:38 437.550
FO-29 27 Jun 10:15:29 10:21:36 73° 258° (WSW) 10:28:37 435.910
UWE-3 27 Jun 10:18:50 10:22:30 24° 294° (WNW) 10:26:05 435.000/436.395/437.385
UNISAT 6 27 Jun 10:19:30 10:24:07 76° 258° (WSW) 10:28:51 437.425
PRISM 27 Jun 10:31:30 10:35:26 49° 260° (W) 10:39:23 437.425
YUBILEINY 27 Jun 10:39:01 10:46:59 40° 274° (W) 10:54:54 435.215
POLYITAN 1 27 Jun 10:47:05 10:49:27 15° 62° (ENE) 10:51:49 437.675
DELFI C3 27 Jun 10:51:58 10:55:56 83° 282° (WNW) 10:59:52 145.870
QB50P2 27 Jun 10:57:11 11:00:17 20° 65° (ENE) 11:03:24 145.880/145.840
HO-68 27 Jun 10:59:35 11:03:02 14° 311° (NW) 11:06:29 435.675
Tancredo 1 27 Jun 11:09:41 11:11:42 16° 1° (N) 11:13:43 437.200
AO-73 27 Jun 11:10:24 11:12:44 14° 298° (WNW) 11:15:01 145.935
TIGRISAT 27 Jun 11:14:34 11:18:16 23° 267° (W) 11:22:02 435.000
EO-79 27 Jun 11:20:12 11:23:56 31° 69° (ENE) 11:27:43 145.935-145.965
EO-88 27 Jun 11:22:34 11:26:06 49° 287° (WNW) 11:29:37 145.990 - 145.960
DUCHIFAT 1 27 Jun 11:31:43 11:35:31 33° 69° (ENE) 11:39:22 145.980
LO-87 27 Jun 11:38:53 11:42:08 30° 97° (E) 11:45:23 145.935 - 145.965
AIST 2D 27 Jun 11:40:11 11:43:43 71° 258° (WSW) 11:47:17 435.315
NANOSAT C BR1 27 Jun 11:41:02 11:45:06 47° 72° (ENE) 11:49:12 145.865
ISS 27 Jun 11:51:40 11:54:02 18° 2° (N) 11:56:25 437.550
PCSat 27 Jun 12:05:40 12:11:03 69° 117° (ESE) 12:16:27 145.827
FO-29 27 Jun 12:06:34 12:08:07 11° 279° (W) 12:09:42 435.910
Gurwin Techsat 1B 27 Jun 12:14:37 12:15:15 10° 55° (NE) 12:15:52 435.225
POLYITAN 1 27 Jun 12:20:33 12:24:45 57° 260° (W) 12:29:00 437.675
VELOX 1 27 Jun 12:28:18 12:30:59 16° 92° (E) 12:33:39 145.980
QB50P2 27 Jun 12:31:48 12:35:48 39° 262° (W) 12:39:50 145.880/145.840
BUGSAT 1 27 Jun 12:33:27 12:37:26 47° 72° (ENE) 12:41:29 437.445
SPROUT 27 Jun 12:33:43 12:36:53 20° 93° (E) 12:40:00 437.525
ESTCUBE 1 27 Jun 12:34:14 12:38:44 76° 102° (ESE) 12:43:13 437.505/2401.250
Oscar 19 27 Jun 12:40:24 12:44:38 27° 65° (ENE) 12:48:52 437.125/150
Tancredo 1 27 Jun 12:45:18 12:47:59 28° 21° (NNE) 12:50:41 437.200
EO-79 27 Jun 12:56:15 12:59:42 24° 266° (W) 13:03:12 145.935-145.965
DUCHIFAT 1 27 Jun 13:07:55 13:11:15 22° 266° (W) 13:14:36 145.980
LO-87 27 Jun 13:12:49 13:15:21 18° 293° (WNW) 13:17:54 145.935 - 145.965
SO-50 27 Jun 13:15:23 13:18:24 18° 111° (ESE) 13:21:24 436.795
NANOSAT C BR1 27 Jun 13:18:27 13:21:03 16° 268° (W) 13:23:41 145.865
ISS 27 Jun 13:28:10 13:31:13 34° 22° (NNE) 13:34:16 437.550
Gurwin Techsat 1B 27 Jun 13:48:56 13:54:11 69° 73° (ENE) 13:59:30 435.225
PCSat 27 Jun 13:50:45 13:54:57 22° 317° (NW) 13:59:10 145.827
VELOX 1 27 Jun 14:03:24 14:07:43 51° 288° (WNW) 14:12:01 145.980
SPROUT 27 Jun 14:08:54 14:12:55 38° 289° (WNW) 14:16:53 437.525
BUGSAT 1 27 Jun 14:10:37 14:13:03 15° 269° (W) 14:15:31 437.445
ESTCUBE 1 27 Jun 14:13:08 14:14:55 12° 300° (WNW) 14:16:42 437.505/2401.250
50 SAT 27 Jun 14:14:56 14:18:18 62° 286° (WNW) 14:21:41 437.505
DX 1 27 Jun 14:16:04 14:20:28 72° 103° (ESE) 14:24:49 434.975-435.025
Oscar 19 27 Jun 14:18:54 14:23:44 40° 262° (W) 14:28:36 437.125/150
AO-7 27 Jun 14:19:19 14:26:39 36° 57° (ENE) 14:34:01 .
Tancredo 1 27 Jun 14:20:44 14:23:41 47° 218° (SW) 14:26:36 437.200
UKube-1 27 Jun 14:28:54 14:33:14 67° 102° (ESE) 14:37:31 .
SO-50 27 Jun 14:53:57 14:58:26 56° 308° (NW) 15:02:54 436.795
ITUPSAT 1 27 Jun 15:00:09 15:02:44 14° 90° (E) 15:05:19 437.325
ITAMSAT 1 27 Jun 15:00:44 15:05:37 43° 69° (ENE) 15:10:32 435.822/435.867
ISS 27 Jun 15:04:38 15:07:45 39° 220° (SW) 15:10:51 437.550
BEESAT 27 Jun 15:08:10 15:11:24 18° 92° (E) 15:14:36 436.000
Gurwin Techsat 1B 27 Jun 15:31:29 15:34:38 16° 270° (W) 15:37:48 435.225
DX 1 27 Jun 15:54:13 15:56:03 12° 300° (WNW) 15:57:53 434.975-435.025
MOZHAYETS 4 27 Jun 15:56:32 16:00:46 36° 97° (E) 16:04:57
UKube-1 27 Jun 16:06:42 16:08:42 13° 299° (WNW) 16:10:42 .
AO-7 27 Jun 16:10:55 16:19:03 57° 257° (WSW) 16:27:17 .
ITUPSAT 1 27 Jun 16:36:14 16:41:00 64° 287° (WNW) 16:45:42 437.325
SO-50 27 Jun 16:38:20 16:39:53 11° 329° (NNW) 16:41:24 436.795
ITAMSAT 1 27 Jun 16:41:01 16:45:14 25° 266° (W) 16:49:29 435.822/435.867
CUBESAT XI-V 27 Jun 16:43:44 16:47:16 22° 93° (E) 16:50:47 437.345
BEESAT 27 Jun 16:44:49 16:49:28 51° 289° (WNW) 16:54:04 436.000
LilacSat-2 27 Jun 17:01:57 17:03:11 11° 63° (ENE) 17:04:25 437.200
DOVE 4 27 Jun 17:04:00 17:07:32 27° 68° (ENE) 17:11:13 437.250
KKS-1 27 Jun 17:14:27 17:18:21 28° 96° (E) 17:22:14 437.445
XW-2C 27 Jun 17:14:31 17:16:43 15° 65° (ENE) 17:18:55 145.795 - 145.815
KAITUO 1B 27 Jun 17:23:15 17:25:18 14° 65° (ENE) 17:27:21 145.475/437.950
MOZHAYETS 4 27 Jun 17:34:03 17:37:44 24° 294° (WNW) 17:41:23
STARS 27 Jun 17:38:12 17:41:39 22° 94° (E) 17:45:04 437.465
NUDT-PHONESAT 27 Jun 17:54:13 17:57:32 30° 71° (ENE) 18:00:52 437.300
